Location: Arbon
(43.0005°N, 0.7472°E)
Time: 02:22:59
(UTC+00:00)

OPS 8737 - Pass Details

Date: 07 August 2020
Orbit: 357 x 1724 km, 63.3° (Epoch: 21 June)

Event Time Altitude Azimuth Distance (km) Brightness Sun altitude
Exits shadow 02:57:00 54° 239° (WSW) 579 4.5 -18.5°
Maximum altitude 02:57:40 75° 305° (NW) 479 4.4 -18.4°
Drops below altitude 10° 03:00:47 10° 33° (NNE) 1,453 8.2 -18.0°
Sets 03:02:37 0° 35° (NE) 2,247 9.6 -17.8°
